Regional Weather Roundup
Issued by NWS Portland, ME

Home | Current Version | Previous Version | Text Only | Print | Product List | Glossary On
Versions: 1 2 3 4 5 6 7 8 9 10 11 12 13 14 15 16 17 18 19 20 21 22 23 24 25 26 27 28 29 30 31 32 33 34 35 36 37 38 39 40 41 42 43 44 45 46 47 48 49 50
000
ASUS41 KGYX 250410
RWRGYX
WEATHER ROUNDUP FOR MAINE AND NEW HAMPSHIRE
NATIONAL WEATHER SERVICE GRAY ME
1200 AM EDT SAT OCT 25 2014

MEZ002-005-006-010-012-015-018-020-021-024-026-027-029-250500-
MAINE

CITY           SKY/WX    TMP DP  RH WIND       PRES   REMARKS
PORTLAND       CLOUDY    51  42  71 NW8       29.71F
SANFORD        CLOUDY    46  39  76 W5        29.73S
BAR HARBOR     CLOUDY    45  43  93 N8        29.64S
WISCASSET      CLOUDY    48  42  80 CALM      29.70S
ROCKLAND       CLOUDY    45  43  93 NW5       29.66S
FRYEBURG       CLOUDY    45  42  89 SW5       29.71F
LEWISTONAUBURN CLOUDY    46  39  76 NW5       29.70S
AUGUSTA        CLOUDY    46  40  79 NW7       29.68F
WATERVILLE     CLOUDY    46  37  71 NW6       29.65F
BANGOR         CLOUDY    44  42  93 NW9       29.67S
GREENVILLE       N/A     42  33  70 NW13G18   29.64F
MILLINOCKET    LGT RAIN  45  41  86 N10G17    29.66F
HOULTON        LGT RAIN  42  40  92 N7        29.62F FOG
PRESQUE ISLE   CLOUDY    41  37  87 N13G20    29.66S
FRENCHVILLE    LGT RAIN  37  35  92 N9        29.67F
CARIBOU        CLOUDY    41  39  93 N12       29.65F
$$

NHZ002-005-008-009-011-012-014-250500-
NEW HAMPSHIRE

CITY           SKY/WX    TMP DP  RH WIND       PRES   REMARKS
PORTSMOUTH     MOCLDY    46  42  86 W5        29.72S
ROCHESTER      CLOUDY    46  42  86 NW3       29.73R
NASHUA         CLEAR     46  42  86 CALM      29.75S
MANCHESTER     MOCLDY    48  40  73 N7        29.73S
CONCORD        CLOUDY    47  41  80 NW5       29.75R
LACONIA        CLOUDY    48  39  71 NW6       29.72S
PLYMOUTH       FAIR      46  43  90 W7        29.74F
BERLIN         CLOUDY    41  38  89 VRB3      29.75S
WHITEFIELD     CLOUDY    42  40  92 CALM      29.79R
JAFFREY        CLOUDY    47  39  74 VRB5      29.76S
LEBANON        CLOUDY    45  39  79 VRB3      29.80R
MT WASHINGTON  MOCLDY    28  25  86 N43G58      N/A  WCI  10
$$

VTZ005-007-008-250500-
VERMONT

CITY           SKY/WX    TMP DP  RH WIND       PRES   REMARKS
ST JOHNSBURY     N/A     40  39  97 MISG      29.79S
MONTPELIER     CLEAR     36  34  92 S6        29.84F
BURLINGTON     PTCLDY    41  38  89 CALM      29.82F
$$

MAZ007-012-024-CTZ003-RIZ002-NYZ038-NYZ072-250500-
SOUTHERN NEW ENGLAND AND NY

CITY           SKY/WX    TMP DP  RH WIND       PRES   REMARKS
BOSTON         PTCLDY    47  41  80 NW10      29.74S
WORCESTER      PTCLDY    46  40  79 NW13      29.75R
NANTUCKET      CLOUDY    52  44  74 NW10      29.72F
PROVIDENCE     CLOUDY    50  42  74 NW7       29.77R
HARTFORD       PTCLDY    51  42  71 NW9       29.79R
ALBANY         PTCLDY    44  42  93 CALM      29.86F
NEW YORK CITY  PTCLDY    58  41  53 NW10      29.83S
$$

ANZ081-ANZ082-ANZ150-NHZ014-MEZ023>029-250500-
COASTAL MARINE OBSERVATIONS

STATION/POSITION TIME  TEMP    WIND        PRES    WAVE
                       AIR SEA DIR/SP/G            HT/PER
                 (UTC) (F)     (DEG/KT/KT) (MB)    (FT/S)
MOUNT DESERT ROC 0300   46                 1002.6F
MATINICUS ROCK   0400          350/ 25/ 27 1003.4F
PORTLAND WX BUOY 0350   51 53  320/ 14/ 17 1005.2F   3/11
WELLS            0300   49 51  320/  3/  5 1005.6R
ISLE OF SHOALS   0300   49     300/ 12/ 13 1005.9R
JEFFREYS LEDGE   0321      56                N/A     5/11
CASHES LEDGE BUO 0350   49 54  330/ 21/ 25 1003.5F   6/ 6
$$

.............KEY..............
   WCI - WIND CHILL
   TC  - TEMPERATURE IN CELSIUS
   VSB - VISIBILITY IN MILES
   HX  - HEAT INDEX
   FAIR- INDICATES FEW OR NO CLOUDS BELOW 12,000 FT, WITH NO
         SIGNIFICANT WEATHER AND/OR OBSTRUCTIONS TO VISIBILITY.





USA.gov is the U.S. government's official web portal to all federal, state and local government web resources and services.